Location: Chacón
(10.5789°N, 66.9317°W)
Time: 11:41:23
(UTC+00:00)

JB-3 - Pass Details

Date: 23 May 2024
Orbit: 509 x 563 km, 97.2° (Epoch: 21 June)

Event Time Altitude Azimuth Distance (km) Brightness Sun altitude
Rises 09:38:34 0° 166° (SSE) 2,610 7.7 -6.8°
Reaches altitude 10° 09:40:39 10° 164° (SSE) 1,728 6.8 -6.3°
Maximum altitude 09:44:22 74° 79° (E) 538 4.5 -5.5°
Drops below altitude 10° 09:48:07 10° 354° (N) 1,749 7.1 -4.6°
Sets 09:50:14 0° 352° (N) 2,645 8.0 -4.1°
